Miscellaneous Local Product
Issued by NWS Hastings, NE

Home | Current Version | Previous Version | Graphics & Text | Print | Product List | Glossary On
Versions: 1 2 3 4 5 6 7 8 9 10 11 12 13 14 15 16 17 18 19 20 21 22 23 24 25 26 27 28 29 30 31 32 33 34 35 36 37 38 39 40 41 42 43 44 45 46 47 48 49 50
000
AXUS43 KGID 170302
MISGRI

GID CWA HOURLY WEATHER ROUNDUP
NATIONAL WEATHER SERVICE HASTINGS NE
1000 PM CDT THU APR 16 2015

NOTE: "FAIR" INDICATES FEW OR NO CLOUDS BELOW 12,000 FEET WITH NO
SIGNIFICANT WEATHER AND/OR OBSTRUCTIONS TO VISIBILITY.

...SOUTH CENTRAL NEBRASKA...

CITY           SKY/WX    TMP DP  RH WIND       PRES   REMARKS
GRAND ISLAND   CLOUDY    59  52  77 S15G21    30.12R
HASTINGS       CLOUDY    57  53  86 NE10      30.08R
KEARNEY        CLOUDY    55  52  88 NE10      30.07F
ORD            CLOUDY    56  50  80 N6        30.08R
YORK           LGT RAIN  61  54  77 SE9       30.11R
AURORA         LGT RAIN  60  53  79 E9        30.08R
LEXINGTON      CLOUDY    55  53  91 NE9       30.05F
HOLDREGE       CLOUDY    54  52  93 E13       30.06R
HEBRON         CLOUDY    63  53  70 CALM      30.05R

...NEBRASKA PANHANDLE...

CITY           SKY/WX    TMP DP  RH WIND       PRES   REMARKS
CHADRON        CLOUDY    50  37  61 N10       30.18R
ALLIANCE       CLOUDY    50  40  68 N13       30.14R
SCOTTSBLUFF    LGT RAIN  46  44  93 W9        30.16R
SIDNEY         LGT RAIN  47  44  90 N10       30.12S

...WESTERN AND NORTH CENTRAL NEBRASKA...

CITY           SKY/WX    TMP DP  RH WIND       PRES   REMARKS
VALENTINE      CLOUDY    60  43  53 N8        30.12R
AINSWORTH      CLOUDY    55  53  94 S3        30.13R
ONEILL         CLOUDY    58  50  74 CALM      30.11R
BROKEN BOW     CLOUDY    56  51  84 NE8       30.09R
IMPERIAL       CLOUDY    52  50  93 NE7       30.07R FOG
NORTH PLATTE   MOCLDY    55  51  86 NE9       30.08R
MCCOOK         CLOUDY    54  52  93 NE13      30.04R FOG

...EASTERN NEBRASKA...

CITY           SKY/WX    TMP DP  RH WIND       PRES   REMARKS
NORFOLK        NOT AVBL
SO SIOUX CITY  CLOUDY    60  49  66 N7        30.08R
TEKAMAH        CLOUDY    60  49  66 NW5       30.07R
COLUMBUS       CLOUDY    57  46  67 E6        30.09S
ALBION         CLOUDY    59  48  67 NE9       30.08R
OMAHA EPPLEY   CLOUDY    62  51  67 CALM      30.07R
OFFUTT AFB     CLOUDY    61  51  70 NE6       30.07R
MILLARD        CLOUDY    65  51  60 CALM      30.06S
LINCOLN        CLOUDY    60  50  69 NE8       30.08R
NEBRASKA CITY  CLOUDY    62  47  57 NE5       30.07R
BEATRICE       CLOUDY    64  54  70 NE7       30.05R
FALLS CITY     CLOUDY    64  54  69 NE7       30.04R

...NORTHERN KANSAS...

CITY           SKY/WX    TMP DP  RH WIND       PRES   REMARKS
GOODLAND       RAIN      52  51  97 NE14      30.03R FOG
HILL CITY      CLOUDY    56  54  93 E7        30.03R
NORTON         CLEAR     54  48  82 E8        30.04R
PHILLIPSBURG   PTCLDY    57  54  88 E8        30.05R
SMITH CENTER   CLEAR     55  46  71 E6        30.05R
BELOIT         PTCLDY    59  52  77 E6        30.01F
HAYS           CLOUDY    55  46  71 SE21      30.01S
RUSSELL        CLOUDY    56  53  90 SE9       30.02R
CONCORDIA      CLOUDY    61  49  64 W6        30.03F
SALINA         CLOUDY    61  52  72 SE3       29.99F
TOPEKA         CLOUDY    64  57  78 CALM      30.04R



USA.gov is the U.S. government's official web portal to all federal, state and local government web resources and services.